Terug naar catalogus

STARLINK-30947

ActiefCommunicatieVLEO
NORAD 58473·PAYLOAD·🇺🇸 United States

Gelanceerd Dec 3, 2023 vanaf Cape Canaveral Space Force Station

Loading…

Volgende Passages (komende 24 uur)

TLE

VersSource: CelesTrak SupGP

Epoch: Sep 15, 2026, 02:53 UTC

1 58473C 23186A   26258.12062500 -.00104750  00000+0 -37918-2 0  2582
2 58473  43.0015  77.3907 0001683 268.2760 162.2750 15.27650356    18

Volg STARLINK-30947 in realtime met AllMySat

Download on the App Store